Location: ??
(35.5052°N, 139.7262°E)
Time: 17:54:54
(UTC+00:00)

CZ-2D R/B - Pass Details

Date: 20 June 2021
Orbit: 551 x 639 km, 97.9° (Epoch: 29 July)

Event Time Altitude Azimuth Distance (km) Brightness Sun altitude
Rises 18:04:48 0° 11° (NNE) 2,832 7.9 -14.1°
Reaches altitude 10° 18:06:59 10° 11° (NNE) 1,913 6.9 -13.8°
Maximum altitude 18:11:08 87° 287° (WNW) 580 3.4 -13.2°
Enters shadow 18:14:32 14° 194° (SSW) 1,599 5.2 -12.7°
